Weather History for KJXN - October, 2013

Change the Weather History Date:

Wednesday, October 30, 2013

  Actual Average Record
Temperature  
Mean Temperature 49 °F 46 °F  
Max Temperature 63 °F 55 °F 77 °F (1950)
Min Temperature 35 °F 37 °F 18 °F (1988)
Degree Days  
Heating Degree Days 16 19  
Month to date heating degree days 409 441  
Since 1 July heating degree days 617 629  
Cooling Degree Days 0 0  
Month to date cooling degree days 12 3  
Year to date cooling degree days 616 589  
Moisture  
Dew Point 45 °F    
Average Humidity 73    
Maximum Humidity 100    
Minimum Humidity 46    
Precipitation  
Precipitation 0.33 in 0.07 in 0.49 in (2004)
Month to date precipitation 1.38 2.55  
Year to date precipitation 28.48 26.95  
Sea Level Pressure  
Sea Level Pressure 30.09 in    
Wind  
Wind Speed 6 mph (SE)    
Max Wind Speed 14 mph    
Max Gust Speed 18 mph    
Visibility 8 miles    
Events Rain , Thunderstorm    
T = Trace of Precipitation, MM = Missing Value Source: NWS Daily Summary

Daily Weather History Graph

Daily Weather History Graph

Search for Another Location

Airport or City:

Trip Planner

Search our weather history database for the weather conditions in past years. The results will help you decide how hot, cold, wet, or windy it might be!

Date:

Astronomy

Oct. 30, 2013 Rise Set
Actual Time 8:08 AM EDT 6:33 PM EDT
Civil Twilight 7:39 AM EDT 7:02 PM EDT
Nautical Twilight 7:06 AM EDT 7:35 PM EDT
Astronomical Twilight 6:34 AM EDT 8:08 PM EDT
Moon 3:52 AM EDT (10/30) 4:22 PM EDT (10/30)
Length of Visible Light 11h 22m
Length of Day
10h 24m
Waning Crescent, 17% of the Moon is Illuminated
Oct 30
Waning Crescent
Nov 3
New
Nov 10
First Quarter
Nov 17
Full
Nov 25
Last Quarter

Hourly Weather History & Observations

Time (EDT) Temp. Windchill Dew Point Humidity Pressure Visibility Wind Dir Wind Speed Gust Speed Precip Events Conditions
12:56 AM 37.9 °F 35.5 °F 35.1 °F 89% 30.23 in 10.0 mi East 3.5 mph - N/A   Clear
1:56 AM 37.0 °F - 35.1 °F 93% 30.22 in 10.0 mi Calm Calm - N/A   Clear
2:56 AM 37.0 °F - 35.1 °F 93% 30.20 in 10.0 mi Calm Calm - N/A   Clear
3:56 AM 36.0 °F 31.1 °F 35.1 °F 97% 30.18 in 9.0 mi SE 5.8 mph - N/A   Clear
4:56 AM 37.0 °F - 36.0 °F 96% 30.17 in 6.0 mi Calm Calm - N/A   Clear
5:56 AM 35.1 °F 32.2 °F 35.1 °F 100% 30.18 in 6.0 mi SSE 3.5 mph - N/A   Partly Cloudy
6:56 AM 35.1 °F 32.2 °F 34.0 °F 96% 30.18 in 4.0 mi East 3.5 mph - N/A   Clear
7:56 AM 36.0 °F - 35.1 °F 97% 30.18 in 4.0 mi Calm Calm - N/A   Mostly Cloudy
8:56 AM 39.0 °F - 37.0 °F 93% 30.20 in 4.0 mi Calm Calm - N/A   Scattered Clouds
9:56 AM 43.0 °F 39.5 °F 39.9 °F 89% 30.21 in 6.0 mi SE 5.8 mph - N/A   Clear
10:56 AM 50.0 °F - 42.1 °F 74% 30.19 in 10.0 mi SE 3.5 mph - N/A   Clear
11:56 AM 55.9 °F - 45.0 °F 67% 30.18 in 9.0 mi ESE 3.5 mph - N/A   Clear
12:56 PM 60.1 °F - 43.0 °F 53% 30.15 in 10.0 mi SE 8.1 mph - N/A   Clear
1:56 PM 63.0 °F - 44.1 °F 50% 30.11 in 10.0 mi SE 11.5 mph - N/A   Clear
2:56 PM 63.0 °F - 42.1 °F 46% 30.09 in 10.0 mi SSE 12.7 mph - N/A   Clear
3:56 PM 62.1 °F - 41.0 °F 46% 30.09 in 10.0 mi SSE 9.2 mph - N/A   Clear
4:56 PM 61.0 °F - 44.1 °F 54% 30.07 in 10.0 mi South 5.8 mph - N/A   Mostly Cloudy
5:56 PM 60.1 °F - 46.9 °F 62% 30.05 in 10.0 mi SSE 6.9 mph - N/A   Overcast
6:20 PM 59.0 °F - 48.2 °F 67% 30.03 in 10.0 mi SSE 6.9 mph - N/A   Overcast
6:41 PM 59.0 °F - 48.2 °F 67% 30.03 in 10.0 mi SSE 6.9 mph - N/A   Overcast
6:56 PM 59.0 °F - 48.9 °F 69% 30.05 in 10.0 mi SSE 6.9 mph - N/A   Overcast
7:56 PM 59.0 °F - 50.0 °F 72% 30.04 in 10.0 mi SSE 8.1 mph - N/A   Overcast
8:56 PM 59.0 °F - 51.1 °F 75% 30.02 in 10.0 mi SSE 8.1 mph - N/A   Overcast
9:56 PM 55.9 °F - 54.0 °F 93% 29.99 in 7.0 mi SE 10.4 mph - 0.05 in Rain Light Rain
10:04 PM 55.4 °F - 53.6 °F 94% 29.98 in 7.0 mi SSE 8.1 mph - 0.00 in Rain Light Rain
10:12 PM 55.4 °F - 53.6 °F 94% 29.98 in 6.0 mi South 8.1 mph - 0.00 in Rain Light Rain
10:21 PM 55.4 °F - 53.6 °F 94% 29.98 in 6.0 mi SSE 8.1 mph - 0.01 in Rain Light Rain
10:37 PM 55.4 °F - 53.6 °F 94% 29.96 in 6.0 mi SSE 8.1 mph - 0.01 in Rain Light Rain
10:56 PM 55.9 °F - 54.0 °F 93% 29.95 in 7.0 mi SSE 10.4 mph - 0.02 in   Mostly Cloudy
11:10 PM 55.4 °F - 55.4 °F 100% 29.95 in 6.0 mi South 9.2 mph - N/A   Mostly Cloudy
11:45 PM 55.4 °F - 55.4 °F 100% 29.94 in 2.5 mi SSE 6.9 mph - 0.06 in Rain , Thunderstorm Rain
11:56 PM 55.9 °F - 55.0 °F 97% 29.94 in 2.5 mi SSE 10.4 mph - 0.13 in Rain , Thunderstorm Heavy Rain